www.pogodaiklimat.ru

Погода и климат >> Архив погоды >> Россия >> Якутия >> Агаякан


ПОГОДА в Агаякане

  • Прогноз погоды в Агаякане
  • Монитор погоды в Агаякане

АРХИВ ПОГОДЫ в Агаякане

Время (UTC), дата Ветер
(напр.,м/с)
 
Видим.   Явления Облачность Т
(С)
Тd
(С)
f
(%)
Тe
(С)
Тes
(С)
Комфортность P
(гПа)
Po
(гПа)
Тmin
(С)
Tmax
(С)
R
(мм)
R24
(мм)
S
(см)
03 19.04 СВ 1 50 км 10/0
[Ac As]
-6.0 -12.3 61 -8 -5 1019.6 924.0
06 19.04 СВ 1 50 км 10/0
[Ac As]
-5.0 -9.5 71 -7 -5 1018.2 923.1
09 19.04 С 2 50 км 10/0
[Ac As]
-5.0 -7.8 81 -9 -9 1017.9 922.8 -4.5
12 19.04 штиль 0 20 км слаб. снег 10/0
[Ac As]
-6.5 -7.0 96 -7 -7 1018.5 922.8
15 19.04 штиль 0 20 км слаб. снег 10/0
[Ac As]
-7.0 -7.2 98 -8 -8 1017.8 922.1
18 19.04 штиль 0 20 км слаб. снег 10/0
[Ac As]
-8.5 -8.8 98 -9 -9 1018.6 922.3
21 19.04 ЮЗ 1 50 км {снег} 10/0
[Ac As]
-10.5 -11.1 95 -13 -12 1020.1 922.9 -11.0 2 30
00 20.04 СЗ 2 50 км {снег} 6/0
[Ac As]
-5.5 -7.0 89 -10 -6 1018.9 923.5
03 20.04 СВ 3 50 км 8/0
[Ac As]
-2.0 -6.5 71 -7 -3 1017.1 923.1
06 20.04 СВ 3 50 км 4/0
[As trans]
+2.0 -9.1 44 -1 +2 1014.1 921.7
09 20.04 ЮВ 1 50 км 3/0
[As trans]
+2.0 -7.7 49 +1 +2 1012.8 920.5 +2.5
12 20.04 В 2 20 км 3/0
[As trans]
-2.0 -9.5 56 -5 -5 1014.5 920.7
15 20.04 ЮЗ 1 20 км 3/0
[As trans]
-6.7 -12.3 64 -9 -9 1016.1 920.5
18 20.04 штиль 0 20 км 8/0
[Ac As]
-8.5 -10.4 86 -9 -9 1016.7 920.5
21 20.04 штиль 0 50 км 10/0
[Ac As]
-7.5 -10.1 82 -8 -8 1015.9 920.2 -8.7 29
00 21.04 штиль 0 50 км 10/0
[As trans]
-2.0 -8.6 61 -3 +1 1013.3 919.6
03 21.04 ЮЗ 2 50 км 10/0
[As trans]
+3.5 -8.5 41 +1 +5 1010.2 918.6
06 21.04 ЮЗ 3 50 км 10/0
[As trans]
+3.2 -10.1 37 0 +2 1009.3 917.7
09 21.04 ЮЗ 2 50 км 10/0
[As op]
+1.5 -10.5 40 -1 -1 1010.5 918.2 +4.0
12 21.04 штиль 0 20 км 10/0
[As op]
-0.5 -10.8 46 -1 -1 1011.8 918.7
15 21.04 З 1 20 км 10/0
[As op]
-1.0 -11.1 46 -2 -2 1011.8 918.5
18 21.04 СВ 1 20 км 10/0
[As op]
-4.5 -10.1 65 -6 -6 1013.2 918.7
21 21.04 Ю 2 50 км 10/0
[As trans]
-3.5 -8.8 67 -7 -7 1012.8 918.7 -4.7 28
00 22.04 В 1 50 км 10/0
[As trans]
-1.0 -10.0 50 -2 +1 1011.3 918.1
03 22.04 В 2 50 км 10/0
[As trans]
+1.5 -10.0 42 -1 +3 1009.4 917.2
06 22.04 ЮЗ 1 20 км слаб. снег 10/0
[As op]
-0.5 -6.6 63 -2 -1 1010.0 917.2
09 22.04 В 1 20 км слаб. снег 10/0
[As op]
-2.0 -2.3 98 -4 -4 1009.9 916.6 +1.5 2
12 22.04 В 1 20 км слаб. снег 10/0
[As op]
-3.3 -3.4 99 -6 -6 1010.8 917.0
15 22.04 штиль 0 20 км в посл. час снег 6/0
[As op]
-5.7 -6.1 97 -7 -7 1011.7 917.0
18 22.04 Ю 1 20 км {снег} 10/0
[Ac As]
-10.1 -10.7 95 -12 -12 1013.5 917.1
21 22.04 штиль 0 50 км 8/0
[Ac As]
-9.0 -9.3 98 -10 -9 1013.3 917.3 -10.5 0.6 29
00 23.04 Ю 1 50 км 8/0
[As trans]
-4.7 -8.1 77 -7 -3 1011.7 917.3
03 23.04 СЗ 1 50 км 10/0
[As op]
-0.5 -8.3 56 -2 0 1009.5 916.6
06 23.04 С 1 50 км 8/6 600 м
[Sc As trans]
+1.0 -8.3 50 -0 +2 1008.6 916.4
09 23.04 З 2 50 км 8/8 600 м
[Sc]
+0.5 -8.7 50 -2 -2 1009.7 917.2 +1.8
12 23.04 ЮЗ 1 20 км 8/6 600 м
[Sc As trans]
-5.3 -6.0 95 -8 -8 1012.9 918.2
15 23.04 Ю 2 20 км 3/3 600 м
[Sc]
-8.0 -8.2 98 -13 -13 1014.7 918.9
18 23.04 ЮЗ 3 20 км 8/0
[Ac trans]
-11.0 -11.6 95 -17 -17 1017.5 920.0
21 23.04 Ю 2 50 км 3/0
[Ac trans]
-12.0 -14.0 85 -17 -15 1018.8 921.2 -12.5 28
00 24.04 Ю 2 50 км 3/0
[As trans]
-5.3 -12.8 56 -9 -3 1016.2 921.1
03 24.04 СЗ 1 50 км 6/0
[As trans]
+0.5 -13.0 36 -0 +7 1013.1 920.3
06 24.04 С 2 50 км 8/8 600 м
[Sc]
-0.5 -7.8 58 -4 -3 1014.0 920.7
09 24.04 штиль 0 50 км 3/3 600 м
[Sc]
-2.0 -14.0 39 -2 -2 1014.6 920.8 +0.8
12 24.04 штиль 0 20 км ясно -7.7 -16.8 48 -8 -8 1017.6 921.5
15 24.04 Ю 1 20 км ясно -13.0 -16.5 75 -15 -15 1019.7 921.6
18 24.04 Ю 1 20 км ясно -18.2 -18.8 95 -21 -21 1021.4 921.3
21 24.04 штиль 0 50 км 8/0
[]
-14.5 -15.8 90 -15 -13 1019.6 921.0 -18.5 28
00 25.04 ЮВ 1 50 км 10/0
[As op]
-6.3 -12.2 63 -8 -7 1015.7 920.4
03 25.04 штиль 0 50 км 8/0
[As trans]
-0.5 -11.3 44 -1 +6 1011.6 918.5
06 25.04 Ю 1 50 км 10/0
[Ac As]
+0.5 -8.7 50 -1 +1 1010.1 917.5
09 25.04 штиль 0 50 км 8/6 600 м
[Sc As op]
+1.0 -6.6 57 +1 +1 1009.2 917.0 +1.5
12 25.04 штиль 0 20 км 8/8 600 м
[Sc]
-2.5 -7.9 66 -3 -3 1010.6 917.0
15 25.04 штиль 0 20 км 10/10 600 м
[Sc]
-4.0 -6.9 80 -5 -5 1010.3 916.3
18 25.04 штиль 0 20 км 10/10 600 м
[Sc]
-5.5 -7.3 87 -6 -6 1010.1 915.5
21 25.04 З 2 50 км 10/10 600 м
[Sc]
-2.0 -6.4 72 -6 -6 1007.8 914.6 -5.7 28
00 26.04 50 км н/о +0.3 -6.7 59 -3 -1 1006.1 913.9

 

Местоположение метеостанции Агаякан (Якутия, Россия): широта 63.33 долгота 141.70 высота над уровнем моря 777 м.

В архиве по умолчанию представлена погода в Агаякане за последнюю неделю. Архивные данные за месяц целиком и за предыдущие месяцы, начиная с января 2011 года, Вы можете получить, выбрав интересующий диапазон дат из раскрывающегося списка и нажав кнопку "Ввод!".


*Определитесь, кто Вы:
робот инопланетянин человек

Внимание! Время в таблицах - всемирное. Для получения местного времени необходимо прибавить поправку, которая равна 10 ч.

Смотрите также архив погоды в соседних городах и на ближайших метеорологических станциях:

Погода в Оймяконе (Якутия, Россия) (71 км)
Погода в Юртах (Якутия, Россия) (80 км)
Погода в Восточной (Якутия, Россия) (106 км)
Погода в Усть-Нере (Якутия, Россия) (150 км)
Погода в Делянкире (Якутия, Россия) (201 км)
Погода в Теплом Ключе (Якутия, Россия) (254 км)
Погода в Уеге (Хабаровский край, Россия) (295 км)
Погода в Томпо (Якутия, Россия) (299 км)
Погода в Сусумане (Магаданская область, Россия) (328 км)
Погода в Колымской (Магаданская область, Россия) (344 км)

Пояснения к столбцам:

Ветер - указаны скорость ветра в м/с - средняя за 10 мин, порывы в срок и между сроками (в фигурных скобках) и направление, откуда дует ветер: С - северный, СВ - северо-восточный, В - восточный, ЮВ - юго-восточный, Ю - южный, ЮЗ - юго-западный, З - западный, СЗ - северо-западный.
Видимость - горизонтальная дальность видимости в метрах или километрах. При видимости от 1 до 10 км при отсутствии осадков обычно наблюдается дымка, при ухудшении видимости до 1 км и менее - туман. В сухую погоду видимость может ухудшаться дымом, пылью или мглою.
Явления - указаны атмосферные явления, наблюдавшиеся в срок или в последний час перед сроком; фигурными скобками обозначены явления, наблюдавшиеся между сроками (за 1-3 часа до срока); квадратными скобками обозначены град или гололедные отложения с указанием их диаметра в мм.
Облачность - указаны через наклонную черту общая и нижняя облачность в баллах и высота нижней границы облаков в метрах; квадратными скобками обозначены формы облаков: Ci - перистые, Cs - перисто-слоистые, Cc - перисто-кучевые, Ac - высококучевые, As - высокослоистые, Sc - слоисто-кучевые, Ns - слоисто-дождевые, Cu - кучевые, Cb - кучево-дождевые. Подробнее классификацию облаков см. в Атласе облаков (PDF).
T - Температура воздуха - температура, измеренная на высоте 2 м над землей.
Td - Температура точки росы - температура, при понижении до которой содержащийся в воздухе водяной пар достигнет насыщения.
f - Относительная влажность воздуха - влажноcть воздуха, измеренная на высоте 2 м над землей.
Te - Эффективная температура - температура, которую ощущает одетый по сезону человек в тени. Характеристика душности погоды. При расчете учитывается влияние влажности воздуха и скорости ветра на теплоощущения человека.
Tes - Эффективная температура на солнце - температура, которую ощущает человек, с поправкой на солнечный нагрев. Характеристика знойности погоды. Зависит от высоты солнца над горизонтом, облачности и скорости ветра. Ночью, в пасмурную погоду, а также при ветре 12 м/с и более поправка равна нулю.
P - Атмосферное давление - приведенное к уровню моря атмосферное давление.
Po - Атмосферное давление - измеренное на уровне метеостанции атмосферное давление.
Tmin - Минимальная температура - минимум температуры воздуха на высоте 2 м над землей.
Tmax - Максимальная температура - максимум температуры воздуха на высоте 2 м над землей.
R - Количество осадков - Количество выпавших осадков за период времени, мм. При наведении курсора мыши на число - период времени, за который выпало указанное количество осадков.
R24 - Количество осадков - Количество выпавших осадков за 24 часа, мм.
S - Снежный покров - Высота снежного покрова, см. При наведении курсора мыши на число - состояние снежного покрова и степень покрытия местности в баллах.